Regional Weather Roundup
Issued by NWS San Angelo, TX

Home | Current Version | Previous Version | Text Only | Print | Product List | Glossary On
Versions: 1 2 3 4 5 6 7 8 9 10 11 12 13 14 15 16 17 18 19 20 21 22 23 24 25 26 27 28 29 30 31 32 33 34 35 36 37 38 39 40 41 42 43 44 45 46 47 48 49 50
000
ASUS44 KSJT 060510
RWRSJT
WEST CENTRAL TEXAS REGIONAL WEATHER ROUNDUP
NATIONAL WEATHER SERVICE SAN ANGELO TX
1200 AM CDT WED MAY 06 2015

NOTE: "FAIR" INDICATES FEW OR NO CLOUDS BELOW 12,000 FEET WITH NO
SIGNIFICANT WEATHER AND/OR OBSTRUCTIONS TO VISIBILITY.

TXZ049-054-064>066-071>073-076>078-098-099-113-114-127-128-139-140-
154-155-168>170-060600
...LOCATIONS ACROSS WEST CENTRAL TEXAS...

CITY           SKY/WX    TMP DP  RH WIND       PRES   REMARKS
SAN ANGELO     MOCLDY    71  64  78 S12       29.91S
ABILENE        CLOUDY    69  63  81 S14       29.92S
DYESS AFB      PTCLDY    68  63  86 S15       29.90R
JUNCTION       CLOUDY    71  67  87 SE6       29.93S
SWEETWATER     CLEAR     67  65  94 S14G22    29.94R
BROWNWOOD      MOCLDY    66  64  94 SE12G20   29.94S
COLEMAN        CLOUDY    68  65  88 SE13      29.93S
SONORA         CLOUDY    70  66  88 S12       29.98R
OZONA          FAIR      68  63  83 S8        29.96S
BRADY          NOT AVBL
$$

TEXAS PANHANDLE/OKLAHOMA PANHANDLE

CITY           SKY/WX    TMP DP  RH WIND       PRES   REMARKS
AMARILLO       PTCLDY    53  50  89 S16       29.86S
BORGER         CLOUDY    57  50  77 S13       29.82F
CANADIAN       CLOUDY    57  55  95 SW3       29.82S
DALHART        PTCLDY    51  48  89 S10       29.81F
DUMAS          MOCLDY    52  49  89 S10       29.83S
GUYMON         NOT AVBL
HEREFORD       PTCLDY    54  51  87 MISG      29.87S
PAMPA          CLOUDY    54  51  89 S14       29.84F
PERRYTON       PTCLDY    54  52  94 S8        29.82S
$$

SOUTHERN PANHANDLE/SOUTH PLAINS/ROLLING PLAINS

CITY           SKY/WX    TMP DP  RH WIND       PRES   REMARKS
LUBBOCK        PTCLDY    60  58  92 SE14      29.88S
SNYDER         CLEAR     64  61  88 S8        29.92R
CHILDRESS      CLOUDY    57  56  96 SE12      29.87F
SEMINOLE       CLEAR     58  46  66 CALM      29.90S
$$

PERMIAN BASIN

CITY           SKY/WX    TMP DP  RH WIND       PRES   REMARKS
MIDLAND        CLEAR     69  61  75 S10       29.91R
ODESSA         CLEAR     68  59  73 S12       29.91R
WINK           CLEAR     68  58  70 SE9       29.88R
$$

FAR WEST/SOUTHWEST MOUNTAINS/TRANS PECOS

CITY           SKY/WX    TMP DP  RH WIND       PRES   REMARKS
ALPINE         CLEAR     58  34  39 S5        30.02S
DRYDEN           N/A     73  67  81 E13G21    29.89R
EL PASO        PTCLDY    71  34  25 NW9       29.93R
FORT STOCKTON  CLEAR     67  62  84 S18G24    29.89S
GUADALUPE PASS CLEAR     63  31  30 W29       29.98R
MARFA          CLEAR     52  34  50 N6        30.01S
PECOS          CLEAR     66  58  74 SE3       29.88R
$$

DALLAS/FORT WORTH METROPLEX

CITY           SKY/WX    TMP DP  RH WIND       PRES   REMARKS
DFW AIRPORT    CLOUDY    71  67  87 SE17      29.94R
FTW MEACHAM    CLOUDY    72  68  87 SE16G28   29.94S
DAL-EXECUTIVE  MOCLDY    71  66  84 SE16G25   29.95S
GRAND PRAIRIE  PTCLDY    72  67  84 SE15G24   29.96S
ADDISON        CLOUDY    72  67  86 S18       29.97S
MESQUITE       MOCLDY    72  65  81 SE14G21   29.96F
LANCASTER      MOCLDY    71  64  81 SE14G22   29.97F
$$

NORTH CENTRAL TEXAS

CITY           SKY/WX    TMP DP  RH WIND       PRES   REMARKS
SHRMAN/DENISON CLOUDY    71  69  94 SE15G24   29.97R
GAINESVILLE    LGT RAIN  69  67  95 SE16G22   29.95F
BRIDGEPORT     MOCLDY    70  70 100 S12G20    29.94S
DENTON         CLOUDY    71  67  87 SE17G26   29.94S
WAXAHACHIE     MOCLDY    70  67  91 SE15G21   29.97S
GRANBURY         N/A     73  68  84 SE14      29.95R
$$

WESTERN NORTH TEXAS

CITY           SKY/WX    TMP DP  RH WIND       PRES   REMARKS
WICHITA FALLS  MOCLDY    67  65  93 S15       29.87F
VERNON         CLOUDY    60  55  84 CALM      29.92F
BRECKENRIDGE   CLOUDY    72  62  70 S14G20    29.92S
COMANCHE       CLOUDY    67  67 100 SE15G21   29.94F
$$

CENTRAL AND SOUTH CENTRAL TEXAS

CITY           SKY/WX    TMP DP  RH WIND       PRES   REMARKS
AUSTIN/BERGSTM HVY RAIN  72  72 100 VRB5G18   29.94F FOG
WACO           CLOUDY    71  68  90 S9        29.97R
HILLSBORO      CLOUDY    70  66  86 SE15      29.97R THUNDER
TEMPLE         CLOUDY    70  63  78 SE10      29.96R
KILLEEN-GRAY   CLOUDY    68  68 100 S13       29.95S
FORT HOOD        N/A    N/A N/A N/A S14       29.95
GEORGETOWN     MOCLDY    70  68  94 S13G22    29.96S
LAGO VISTA     LGT RAIN  69  67  94 SE7       29.98S
SAN MARCOS     CLOUDY    72  70  94 S10       29.96S
NEW BRAUNFELS  CLOUDY    73  70  90 S15       29.93S
RANDOLPH AFB   CLOUDY    72  71  97 S13       29.95R
SAN ANTONIO    CLOUDY    73  70  90 SE14      29.95R
STINSON        CLOUDY    73  70  90 SE14      29.93R
PLEASANTON     NOT AVBL
LA GRANGE      MOCLDY    75  72  89 SE12      29.96S
GIDDINGS       LGT RAIN  71  69  94 SE14G20   29.98F
$$

EAST TEXAS

CITY           SKY/WX    TMP DP  RH WIND       PRES   REMARKS
PARIS          CLOUDY    70  63  78 MISG      30.01R
CLARKSVILLE    NOT AVBL
TYLER          PTCLDY    70  64  81 S14       30.01S
LONGVIEW       PTCLDY    72  61  68 S12       30.03S
PALESTINE      MOCLDY    70  66  88 SE8       30.02S
NACOGDOCHES    PTCLDY    70  63  78 SE9       30.05S
$$

TEXAS HILL COUNTRY AND EDWARDS PLATEAU

CITY           SKY/WX    TMP DP  RH WIND       PRES   REMARKS
LLANO          CLOUDY    70  70 100 CALM      29.99S FOG
HORSESHOE BAY  CLOUDY    70  68  94 SE6       29.96S
KERRVILLE      CLOUDY    69  67  95 SE10      29.96S
FREDERICKSBRG  CLOUDY    69  66  92 S9G17     29.96S
ROCKSPRINGS    CLOUDY    68  68 100 S15G21    29.97S FOG
HONDO          CLOUDY    72  70  93 SE12      29.95S
UVALDE         CLOUDY    72  70  95 SE9       29.93S
DEL RIO        CLOUDY    72  69  90 E12       29.88R
$$

SOUTHEAST TEXAS

CITY           SKY/WX    TMP DP  RH WIND       PRES   REMARKS
COLLEGE STN    LGT RAIN  72  68  87 SE21G36   29.95F
CALDWELL       CLOUDY    72  72 100 SE14      29.99R
CROCKETT       NOT AVBL
BRENHAM        RAIN      74  70  86 SE10      29.99F
HUNTSVILLE     CLOUDY    73  66  78 SE8       30.01R
CONROE         CLOUDY    72  67  84 SE12      30.03R
HOUSTON BUSH   CLOUDY    75  67  76 SE15G24   30.02R
HOUSTON HOBBY  MOCLDY    75  67  76 SE9G21    30.00F
PERLAND        PTCLDY    76  67  73 SE15G23   30.02S
WHARTON        CLOUDY    74  69  86 E12G17    30.00S
$$

THE UPPER TEXAS COAST

CITY           SKY/WX    TMP DP  RH WIND       PRES   REMARKS
ORANGE         MOCLDY    73  65  74 SE8       30.08S
PORT ARTHUR    PTCLDY    74  68  81 SE16      30.05S
GALVESTON      PTCLDY    75  69  81 SE18      30.03S
ANGLETON       CLOUDY    73  71  93 SE8       30.00R
BAY CITY       CLOUDY    75  72  90 SE10      29.99R
$$

TEXAS COASTAL BEND, RIO GRANDE PLAINS DEEP SOUTH TEXAS

CITY           SKY/WX    TMP DP  RH WIND       PRES   REMARKS
VICTORIA       LGT RAIN  76  72  87 SE17      29.96S
BEEVILLE       CLOUDY    75  74  99 SE15G21   29.93F
ROCKPORT       CLOUDY    77  72  84 SE21G26   29.94R
PORT ARANSAS   CLOUDY    76  73  93 SE16      29.94R
PORT LAVACA    CLOUDY    75  72  88 SE17G23   29.97R
CORPUS CHRISTI CLOUDY    76  72  87 SE18G26   29.93R
KINGSVILLE NAS CLOUDY    75  74  96 SE16      29.91S
COTULLA        LGT RAIN  75  69  81 SE16      29.91S
LAREDO         CLOUDY    76  70  82 SE14      29.90R
BROWNSVILLE    CLOUDY    77  73  87 SE14      29.93R
PORT ISABEL    PTCLDY    77  72  84 SE16      29.91S
HEBBRONVILLE     N/A     74  70  89 SE13G18   29.91S
MCALLEN        CLOUDY    78  72  81 SE15      29.90S
WESLACO        PTCLDY    76  71  85 SE9G17    29.90R
FALFURRIAS     CLOUDY    76  71  86 SE10      29.91S
EDINBURG       PTCLDY    77  71  82 SE10      29.90S
$$


USA.gov is the U.S. government's official web portal to all federal, state and local government web resources and services.